Flag for Netherlands Weather past 2 weeks in 's-Hertogenbosch, Netherlands

Now
66 °F

Partly sunny.


Feels Like: 66 °F
Forecast: 49 / 74 °F
Wind: 7 mph from Northeast

Location: Volkel

Current Time: Jul 31, 2015 at 4:05:37 PM

Latest Report: Jul 31, 2015 at 3:25 PM


Visibility: N/A

Pressure: 30.09 "Hg

Humidity: 43%

Dew point: 43 °F

Location of 's-HertogenboschLocation

Historic Weather in 's-Hertogenbosch — Graph

°F

's-Hertogenbosch temperature yesterday

Maximum temperature yesterday: 63 °F (at 11:03 AM)
Minimum temperature yesterday: 48 °F (at 12:55 AM)
Average temperature yesterday: 56 °F

Past Weeks' High & Low Weather Summary

 TemperatureHumidityPressure
High84 °F (Jul 17, 1:55 PM)100% (Jul 20, 2:25 AM)30.15 "Hg (Jul 20, 2:25 AM)
Low45 °F (Jul 31, 3:25 AM)38% (Jul 23, 4:25 PM)29.45 "Hg (Jul 25, 6:55 AM)
Average64 °F74%29.86 "Hg
* Reported Jul 16 2:25 PM — Jul 31 2:55 PM, 's-Hertogenbosch, Weather by CustomWeather, © 2015

Note: Actual official high and low records may vary slightly from our data, if they occured in-between our weather recording intervals... More about our weather records

Advertising

's-Hertogenbosch weather history for previous 24 hours

 ConditionsComfort  
Time TempWeatherWind HumidityBarometerVisibility
2:55 PM
Fri, Jul 31
64 °FScattered clouds.6 mph46%30.09 "HgN/A
2:25 PM64 °FPartly sunny.7 mph52%30.12 "HgN/A
1:55 PM64 °FMild.5 mph46%30.12 "HgN/A
1:25 PM64 °FPassing clouds.5 mph46%30.12 "HgN/A
12:55 PM64 °FMild.6 mph46%30.12 "HgN/A
12:25 PM63 °FOvercast.6 mph52%30.12 "HgN/A
11:55 AM63 °FMild.6 mph52%30.12 "HgN/A
11:25 AM61 °FPassing clouds.3 mph52%30.12 "HgN/A
10:55 AM61 °FRefreshingly cool.5 mph55%30.15 "HgN/A
10:25 AM59 °FRefreshingly cool.3 mph55%30.15 "HgN/A
9:55 AM59 °FScattered clouds.5 mph59%30.15 "HgN/A
9:25 AM59 °FCool.2 mph63%30.15 "HgN/A
9:01 AM57 °FCool.2 mph72%30.15 "HgN/A
8:55 AM55 °FCool.3 mph77%30.15 "HgN/A
8:25 AM54 °FClear.2 mph88%30.15 "HgN/A
7:55 AM50 °FCool.3 mph94%30.12 "HgN/A
7:25 AM48 °FCool.2 mph94%30.12 "HgN/A
6:55 AM45 °FQuite cool.6 mph100%30.12 "HgN/A
6:25 AM45 °FQuite cool.3 mph93%30.12 "HgN/A
5:55 AM45 °FQuite cool.3 mph100%30.12 "HgN/A
5:25 AM45 °FClear.2 mph100%30.12 "HgN/A
4:55 AM45 °FQuite cool.2 mph100%30.12 "HgN/A
4:25 AM45 °FQuite cool.3 mph100%30.12 "HgN/A
3:55 AM45 °FQuite cool.3 mph100%30.12 "HgN/A
3:25 AM45 °FQuite cool.3 mph93%30.12 "HgN/A
2:55 AM46 °FCool.3 mph93%30.12 "HgN/A
2:25 AM48 °FCool.2 mph94%30.12 "HgN/A
1:55 AM48 °FCool.3 mph94%30.12 "HgN/A
1:25 AM48 °FCool.2 mph94%30.12 "HgN/A
12:55 AM50 °FCool.2 mph88%30.12 "HgN/A
12:25 AM50 °FClear.3 mph88%30.12 "HgN/A
11:55 PM
Thu, Jul 30
52 °FCool.3 mph82%30.09 "HgN/A
11:25 PM52 °FCool.5 mph82%30.09 "HgN/A
10:55 PM50 °FCool.2 mph88%30.09 "HgN/A
10:25 PM54 °FCool.2 mph77%30.09 "HgN/A
9:55 PM55 °FCool.3 mph72%30.07 "HgN/A
9:25 PM57 °FCool.2 mph67%30.07 "HgN/A
8:55 PM59 °FPassing clouds.5 mph63%30.07 "HgN/A
8:25 PM61 °FPartly sunny.6 mph63%30.04 "HgN/A
7:55 PM61 °FOvercast.5 mph63%30.04 "HgN/A
7:25 PM63 °FCloudy.6 mph59%30.04 "HgN/A
6:55 PM63 °FMostly cloudy.7 mph68%30.04 "HgN/A
6:25 PM61 °FOvercast.6 mph68%30.04 "HgN/A
5:55 PM63 °FPartly sunny.9 mph64%30.04 "HgN/A
5:25 PM63 °FBroken clouds.8 mph64%30.04 "HgN/A
4:55 PM63 °FBroken clouds.7 mph68%30.01 "HgN/A
4:25 PM61 °FOvercast.7 mph68%30.01 "HgN/A
Weather by CustomWeather, © 2015

See weather overviewHow to use our weather pages